KHMZ

Details ICAO KHMZ
Name BEDFORD CO
Region United States
Timezone America/New_York (UTC-4.0)
Plans Departing 1
Arriving 3
Stats Elevation 1,163 ft / 354 m (AMSL)
Location 40.086128° -78.513502°
Runways 1
Magnetic Variation 10.190° W
Sunrise 2018-05-21 09:54:59 UTC / 2018-05-21 05:54:59 Local
Sunset 2018-05-22 00:29:12 UTC / 2018-05-21 20:29:12 Local
Advertisement - Login to hide

Runways

ID Width Length Bearing (true) Bearing (mag) Surface Threshold Offset Overrun Length
14 75 ft / 23 m 5,002 ft / 1,525 m 127.70° 137.89° Asphalt 0 ft / 0 m 0 ft / 0 m
32 75 ft / 23 m 5,002 ft / 1,525 m 307.71° 317.90° Asphalt 0 ft / 0 m 0 ft / 0 m

Map

Weather


0- 5 10 15 20 25 30 35+ Temperature / ° C

Clouds and Precipitation
Forecast for 2018-05-21 18:00 UTC. Updated 5 hours ago

Ground ~20,000 ft ~40,000 ft Winds

METAR

KHMZ 212235Z AUTO 12006KT 10SM CLR 24/15 A3012 RMK AO2 T02350149

TAF

Not found

Frequencies

Unicom 122.70 MHz UNICOM
Warning: Do not use this data for real-world aviation or navigation. No guarantee of current accuracy is given.